Regional Weather Roundup
Issued by NWS

Home | Current Version | Previous Version | Text Only | Print | Product List | Glossary On
Versions: 1 2 3 4 5 6 7 8 9 10 11 12 13 14 15 16 17 18 19 20 21 22 23 24 25 26 27 28 29 30 31 32 33 34 35 36 37 38 39 40 41 42 43 44 45 46 47 48 49 50
000
ASMX46 KSGX 221610
RWRMX

MEXICAN WEATHER ROUNDUP
NATIONAL WEATHER SERVICE SAN DIEGO CA
900 AM PDT TUE JUL 22 2014

BAJA CALIFORNIA

CITY           SKY/WX    TMP DP  RH WIND       PRES   REMARKS
ENSENADA NW      N/A     70  32  24 S2        30.01S
LA PAZ         MOSUNNY   90  55  31 S6        29.91
LORETO         MOSUNNY   91  75  59 CALM      29.87S HX 102
MEXICALI       SUNNY     90  55  31 NW5       29.92
S.J. DEL CABO  SUNNY     93  59  31 NE3       29.90S
TIJUANA        MOSUNNY   70  59  68 NW7       30.08S

NORTHWESTERN MEXICO

CITY           SKY/WX    TMP DP  RH WIND       PRES   REMARKS
CHIHUAHUA      PTSUNNY   81  54  39 CALM      30.23
CULIACAN       MOSUNNY   90  75  62 NE6       29.89  HX 100
GUAYMAS        MOSUNNY   95  77  55 N6        29.83  HX 109
HERMOSILLO     CLOUDY    90  70  51 CALM      29.94  HX  95
JUAREZ         PTSUNNY   86  50  28 S12       30.12
LOS MOCHIS     PTSUNNY   91  73  55 E5        29.89S HX 100
OBREGON        PTSUNNY   88  77  70 CALM      29.86  HX 100

NORTHEASTERN MEXICO

CITY           SKY/WX    TMP DP  RH WIND       PRES   REMARKS
MATAMOROS      PTSUNNY   90  79  70 SE17      30.02  HX 105
MONCLOVA       PTSUNNY   84  55  37 CALM      30.04S
MONTERREY      MOSUNNY   86  70  58 CALM      30.03R
NUEVO LAREDO   PTSUNNY   90  75  62 SE6       30.02  HX 100
PIEDRAS NEGRAS MOSUNNY   84  73  70 SE7       30.05S
REYNOSA        MOSUNNY   88  68  51 E17       30.01
SALTILLO       MOSUNNY   82  64  54 N7        30.26S
TORREON        PTSUNNY   81  61  50 CALM      30.18S
VICTORIA       SUNNY     86  70  58 S15       30.00

WESTERN MEXICO

CITY           SKY/WX    TMP DP  RH WIND       PRES   REMARKS
AGUASCALIENTES SUNNY     70  45  40 NE9       30.35
COLIMA         MOSUNNY   84  73  70 CALM      30.05S
DURANGO        MOSUNNY   75  54  46 MISG      30.35S
GUADALAJARA    SUNNY     75  57  53 CALM      30.24
MANZANILLO     SUNNY     90  77  66 SE12      29.88R HX 102
MAZATLAN       SUNNY     86  72  62 NW9       29.87S
PTO. VALLARTA  SUNNY     90  73  58 CALM      29.90R HX  98
TEPIC          SUNNY     82  72  69 CALM      30.14R
URUAPAN        SUNNY     73  63  68 CALM      30.24S
ZACATECAS      SUNNY     72  43  35 CALM      30.39S

CENTRAL MEXICO

CITY           SKY/WX    TMP DP  RH WIND       PRES   REMARKS
CUERNAVACA     SUNNY     75  59  57 SE2       30.21S
LEON           SUNNY     73  54  49 S3        30.35F
MEXICO CITY    SUNNY     66  50  55 NW5       30.39F
MORELIA        SUNNY     70  59  68 CALM      30.30
POZA RICA      MOSUNNY   88  75  66 E7        30.06F HX  97
PUEBLA         SUNNY     70  46  43 N5        30.40F
QUERETARO      MOSUNNY   70  54  56 E6        30.37S
S. LUIS POTOSI SUNNY     68  54  60 CALM      30.35F
TAMPICO        MOSUNNY   86  73  66 S8        30.02S
TOLUCA         SUNNY     63  48  59 NW6       30.46F
VERACRUZ       MOSUNNY   86  73  66 E8        30.01R

SOUTHERN MEXICO

CITY           SKY/WX    TMP DP  RH WIND       PRES   REMARKS
ACAPULCO       SUNNY     88  79  74 W6        29.88R HX 102
B. DE HUATULCO   N/A     90  75  62 CALM      29.93  HX 100
MINATITLAN     PTSUNNY   86  73  66 N9        29.97
OAXACA         SUNNY     72  52  49 N6        30.29S
PTO. ESCONDIDO SUNNY     90  75  62 W8        30.01S HX 100
TAPACHULA      PTSUNNY   88  79  74 W6        29.89R HX 102
TUX. GUTIERREZ MOSUNNY   84  70  61 N6        30.00F
VILLAHERMOSA   SUNNY     88  75  66 NE5       29.98F HX  97
ZIHUATANEJO    MOSUNNY   86  73  66 CALM      29.90S

YUCATAN PENINSULA

CITY           SKY/WX    TMP DP  RH WIND       PRES   REMARKS
CAMPECHE       MOSUNNY   88  77  70 E13       29.99S HX 100
CANCUN         SUNNY     88  75  66 E7        30.04S HX  97
CHETUMAL       MOSUNNY   86  75  70 E12       30.00S HX  95
C. DEL CARMEN  MOSUNNY   84  75  74 SE17      29.99
COZUMEL        PTSUNNY   84  75  74 NE8       30.04S
MERIDA         PTSUNNY   88  73  62 E9        30.03F HX  96

$$



USA.gov is the U.S. government's official web portal to all federal, state and local government web resources and services.